TimeMST,TemperatureF,Dew PointF,Humidity,Sea Level PressureIn,VisibilityMPH,Wind Direction,Wind SpeedMPH,Gust SpeedMPH,PrecipitationIn,Events,Conditions,WindDirDegrees,DateUTC
12:53 AM,26.1,15.1,63,30.03,10.0,WSW,3.5,-,N/A,,Clear,250,2013-02-14 07:53:00
1:53 AM,27.0,17.1,66,30.01,10.0,West,8.1,-,N/A,,Clear,270,2013-02-14 08:53:00
2:53 AM,26.1,16.0,66,30.03,10.0,Calm,Calm,-,N/A,,Scattered Clouds,0,2013-02-14 09:53:00
3:53 AM,27.0,16.0,63,30.02,10.0,Calm,Calm,-,N/A,,Scattered Clouds,0,2013-02-14 10:53:00
4:53 AM,30.0,14.0,51,30.03,10.0,WNW,12.7,17.3,N/A,,Scattered Clouds,290,2013-02-14 11:53:00
5:53 AM,30.9,14.0,50,30.04,10.0,NW,6.9,-,N/A,,Overcast,310,2013-02-14 12:53:00
6:53 AM,30.9,16.0,54,30.08,10.0,NW,13.8,28.8,N/A,,Overcast,320,2013-02-14 13:53:00
7:53 AM,28.0,19.0,69,30.13,10.0,NNW,15.0,21.9,N/A,,Overcast,330,2013-02-14 14:53:00
8:02 AM,28.4,19.4,69,30.06,2.0,NNW,18.4,26.5,N/A,,Overcast,330,2013-02-14 15:02:00
8:07 AM,24.8,17.6,74,30.07,0.5,North,29.9,41.4,0.00,Snow,Snow,360,2013-02-14 15:07:00
8:16 AM,19.4,15.8,86,30.08,0.2,NNE,16.1,41.4,0.00,Fog-Snow,Light Snow,20,2013-02-14 15:16:00
8:24 AM,19.4,15.8,86,30.09,0.5,North,16.1,25.3,0.00,Fog-Snow,Light Snow,360,2013-02-14 15:24:00
8:35 AM,19.4,15.8,86,30.08,1.2,North,20.7,29.9,0.00,Snow,Light Snow,10,2013-02-14 15:35:00
8:53 AM,19.9,15.1,81,30.22,1.2,North,21.9,31.1,0.00,Snow,Light Snow,360,2013-02-14 15:53:00
9:11 AM,19.4,14.0,80,30.10,2.5,North,23.0,33.4,0.00,Snow,Light Snow,360,2013-02-14 16:11:00
9:25 AM,21.2,14.0,74,30.11,3.0,North,26.5,34.5,0.00,Snow,Light Snow,10,2013-02-14 16:25:00
9:53 AM,21.0,14.0,74,30.26,2.0,North,24.2,33.4,0.00,Snow,Light Snow,360,2013-02-14 16:53:00
10:25 AM,19.4,14.0,80,30.14,1.2,North,21.9,36.8,0.00,Snow,Light Snow,360,2013-02-14 17:25:00
10:41 AM,19.4,12.2,74,30.14,2.0,North,25.3,36.8,0.00,Snow,Light Snow,360,2013-02-14 17:41:00
10:53 AM,19.9,12.9,74,30.28,3.0,North,26.5,35.7,0.00,Snow,Light Snow,10,2013-02-14 17:53:00
11:24 AM,21.2,12.2,68,30.15,10.0,North,20.7,36.8,0.00,,Mostly Cloudy,360,2013-02-14 18:24:00
11:41 AM,21.2,12.2,68,30.15,9.0,North,24.2,35.7,0.00,,Mostly Cloudy,360,2013-02-14 18:41:00
11:53 AM,21.9,12.9,68,30.30,7.0,North,28.8,36.8,0.00,,Overcast,10,2013-02-14 18:53:00
12:43 PM,21.2,14.0,74,30.15,2.0,North,23.0,36.8,0.00,Snow,Light Snow,360,2013-02-14 19:43:00
12:53 PM,21.9,10.9,63,30.30,7.0,North,23.0,34.5,0.00,Snow,Light Snow,350,2013-02-14 19:53:00
1:53 PM,23.0,8.1,53,30.28,10.0,North,24.2,35.7,0.00,,Overcast,360,2013-02-14 20:53:00
2:53 PM,23.0,10.9,60,30.30,10.0,North,17.3,32.2,N/A,,Overcast,360,2013-02-14 21:53:00
3:53 PM,23.0,10.9,60,30.31,10.0,NNW,17.3,24.2,N/A,,Partly Cloudy,340,2013-02-14 22:53:00
4:53 PM,21.0,10.9,65,30.31,10.0,North,9.2,-,N/A,,Clear,350,2013-02-14 23:53:00
5:53 PM,19.0,12.0,74,30.32,10.0,North,6.9,-,N/A,,Mostly Cloudy,360,2013-02-15 00:53:00
6:53 PM,18.0,12.0,78,30.34,10.0,North,3.5,-,N/A,,Overcast,360,2013-02-15 01:53:00
7:53 PM,18.0,12.0,78,30.35,10.0,NW,3.5,-,N/A,,Overcast,320,2013-02-15 02:53:00
8:53 PM,18.0,10.9,74,30.39,10.0,East,3.5,-,N/A,,Overcast,100,2013-02-15 03:53:00
9:53 PM,19.0,10.9,71,30.38,10.0,Calm,Calm,-,N/A,,Mostly Cloudy,0,2013-02-15 04:53:00
10:53 PM,19.0,10.9,71,30.39,10.0,Calm,Calm,-,N/A,,Overcast,0,2013-02-15 05:53:00
11:53 PM,16.0,10.0,77,30.40,10.0,North,6.9,-,0.00,,Overcast,10,2013-02-15 06:53:00